• în România
  • Lista ţărilor
  • Pe 7 zile
  • Temperatura apei
  • Hartă satelitară
  • Meteo pe hartă
  • Widget-uri
  • user-avatar
    Intrare

    Meteo pe oră la Hanoi

    Astăzi, 15 August, Miercuri

    Timp Temperatura Precipitaţii Vânt Presiune Umiditate
    00:00 +30°C° 0,9 mm 1 m/s 749 mmHg 75%
    01:00 +30°C° 0 mm 1 m/s 749 mmHg 76%
    02:00 +30°C° 0,2 mm 1 m/s 749 mmHg 78%
    03:00 +29°C° 0,2 mm 1 m/s 748 mmHg 80%
    04:00 +29°C° 0,2 mm 1 m/s 748 mmHg 82%
    05:00 +29°C° 0,1 mm 1 m/s 749 mmHg 82%
    06:00 +29°C° 0,1 mm 1 m/s 749 mmHg 83%
    07:00 +28°C° 0 mm 0 m/s 750 mmHg 84%
    08:00 +31°C° 0,4 mm 1 m/s 750 mmHg 80%
    09:00 +31°C° 0,4 mm 1 m/s 750 mmHg 76%
    10:00 +32°C° 0,4 mm 2 m/s 750 mmHg 73%
    11:00 +35°C° 0,3 mm 2 m/s 749 mmHg 67%
    12:00 +36°C° 0,3 mm 2 m/s 749 mmHg 62%
    13:00 +37°C° 0 mm 3 m/s 749 mmHg 57%
    14:00 +37°C° 0,1 mm 3 m/s 749 mmHg 56%
    15:00 +38°C° 0,1 mm 2 m/s 748 mmHg 55%
    16:00 +38°C° 0,1 mm 2 m/s 748 mmHg 54%
    17:00 +37°C° 0 mm 2 m/s 748 mmHg 57%
    18:00 +34°C° 0 mm 1 m/s 748 mmHg 60%
    19:00 +34°C° 0 mm 2 m/s 748 mmHg 68%
    20:00 +32°C° 0,2 mm 2 m/s 748 mmHg 70%
    21:00 +32°C° 0,2 mm 2 m/s 749 mmHg 71%
    22:00 +31°C° 0,2 mm 2 m/s 749 mmHg 73%
    23:00 +31°C° 0,6 mm 2 m/s 749 mmHg 76%

    Mâine, 16 August, Joi

    Timp Temperatura Precipitaţii Vânt Presiune Umiditate
    00:00 +30°C° 0,6 mm 2 m/s 749 mmHg 79%
    01:00 +30°C° 0,6 mm 2 m/s 750 mmHg 82%
    02:00 +29°C° 2,7 mm 2 m/s 749 mmHg 85%
    03:00 +29°C° 2,7 mm 2 m/s 749 mmHg 87%
    04:00 +28°C° 2,7 mm 3 m/s 749 mmHg 90%
    05:00 +28°C° 1,9 mm 3 m/s 749 mmHg 90%
    06:00 +28°C° 1,9 mm 3 m/s 749 mmHg 90%
    07:00 +28°C° 1,9 mm 3 m/s 749 mmHg 90%
    08:00 +29°C° 1 mm 3 m/s 749 mmHg 87%
    09:00 +29°C° 1 mm 3 m/s 749 mmHg 85%
    10:00 +30°C° 1 mm 3 m/s 750 mmHg 82%
    11:00 +31°C° 1,5 mm 3 m/s 749 mmHg 80%
    12:00 +33°C° 1,5 mm 3 m/s 749 mmHg 77%
    13:00 +32°C° 1,5 mm 2 m/s 748 mmHg 75%
    14:00 +32°C° 2,4 mm 2 m/s 748 mmHg 78%
    15:00 +31°C° 2,4 mm 2 m/s 747 mmHg 81%
    16:00 +31°C° 2,4 mm 1 m/s 747 mmHg 84%
    17:00 +30°C° 1,9 mm 1 m/s 747 mmHg 86%
    18:00 +30°C° 1,9 mm 2 m/s 747 mmHg 88%
    19:00 +29°C° 1,9 mm 2 m/s 747 mmHg 91%
    20:00 +29°C° 3,5 mm 2 m/s 747 mmHg 91%
    21:00 +29°C° 3,5 mm 2 m/s 748 mmHg 91%
    22:00 +29°C° 3,5 mm 2 m/s 748 mmHg 91%
    23:00 +29°C° 3,3 mm 2 m/s 748 mmHg 91%

    Poimâine, 17 August, Vineri

    Timp Temperatura Precipitaţii Vânt Presiune Umiditate
    00:00 +28°C° 3,3 mm 2 m/s 748 mmHg 92%
    01:00 +28°C° 3,3 mm 3 m/s 747 mmHg 92%
    02:00 +28°C° 1,6 mm 3 m/s 747 mmHg 92%
    03:00 +28°C° 1,6 mm 3 m/s 747 mmHg 93%
    04:00 +28°C° 1,6 mm 3 m/s 746 mmHg 93%
    05:00 +28°C° 1,6 mm 3 m/s 746 mmHg 93%
    06:00 +28°C° 1,6 mm 4 m/s 747 mmHg 93%
    07:00 +28°C° 1,6 mm 4 m/s 747 mmHg 93%
    08:00 +28°C° 1,3 mm 4 m/s 747 mmHg 92%
    09:00 +28°C° 1,3 mm 4 m/s 747 mmHg 90%
    10:00 +28°C° 1,3 mm 4 m/s 748 mmHg 89%
    11:00 +29°C° 0,7 mm 4 m/s 747 mmHg 86%
    12:00 +30°C° 0,7 mm 4 m/s 747 mmHg 83%
    13:00 +32°C° 0,7 mm 4 m/s 746 mmHg 81%
    14:00 +30°C° 2,3 mm 3 m/s 746 mmHg 84%
    15:00 +30°C° 2,3 mm 3 m/s 746 mmHg 87%
    16:00 +29°C° 2,3 mm 3 m/s 745 mmHg 90%
    17:00 +29°C° 1,1 mm 2 m/s 746 mmHg 90%
    18:00 +28°C° 1,1 mm 2 m/s 746 mmHg 91%
    19:00 +28°C° 1,1 mm 2 m/s 746 mmHg 92%
    20:00 +28°C° 1 mm 2 m/s 747 mmHg 92%
    21:00 +28°C° 1 mm 2 m/s 747 mmHg 92%
    22:00 +28°C° 1 mm 2 m/s 748 mmHg 92%
    23:00 +28°C° 1,2 mm 2 m/s 748 mmHg 92%

    18 August, Sâmbătă

    Timp Temperatura Precipitaţii Vânt Presiune Umiditate
    00:00 +28°C° 1,2 mm 2 m/s 747 mmHg 93%
    01:00 +28°C° 1,2 mm 2 m/s 747 mmHg 93%
    02:00 +28°C° 1,3 mm 2 m/s 747 mmHg 93%
    03:00 +27°C° 1,3 mm 3 m/s 747 mmHg 93%
    04:00 +27°C° 1,3 mm 3 m/s 746 mmHg 93%
    05:00 +27°C° 0,4 mm 3 m/s 747 mmHg 92%
    06:00 +27°C° 0,4 mm 3 m/s 747 mmHg 91%
    07:00 +27°C° 0,4 mm 3 m/s 747 mmHg 91%
    08:00 +28°C° 0,1 mm 3 m/s 748 mmHg 88%
    09:00 +29°C° 0,1 mm 3 m/s 748 mmHg 86%
    10:00 +29°C° 0,1 mm 4 m/s 749 mmHg 83%
    11:00 +30°C° 0,3 mm 4 m/s 749 mmHg 82%
    12:00 +30°C° 0,3 mm 4 m/s 748 mmHg 81%
    13:00 +30°C° 0,3 mm 4 m/s 748 mmHg 80%
    14:00 +30°C° 0,4 mm 4 m/s 747 mmHg 80%
    15:00 +30°C° 0,4 mm 3 m/s 747 mmHg 79%
    16:00 +30°C° 0,4 mm 3 m/s 747 mmHg 79%
    17:00 +30°C° 0,1 mm 2 m/s 747 mmHg 81%
    18:00 +29°C° 0,1 mm 2 m/s 748 mmHg 82%
    19:00 +29°C° 0,1 mm 2 m/s 748 mmHg 84%
    20:00 +28°C° 0,2 mm 1 m/s 749 mmHg 84%
    21:00 +28°C° 0,2 mm 1 m/s 749 mmHg 85%
    22:00 +28°C° 0,2 mm 1 m/s 750 mmHg 85%
    23:00 +28°C° 1,3 mm 1 m/s 750 mmHg 87%

    19 August, Duminică

    Timp Temperatura Precipitaţii Vânt Presiune Umiditate
    00:00 +28°C° 1,3 mm 1 m/s 749 mmHg 88%
    01:00 +28°C° 1,3 mm 1 m/s 749 mmHg 89%
    02:00 +28°C° 0,4 mm 1 m/s 749 mmHg 90%
    03:00 +27°C° 0,4 mm 1 m/s 749 mmHg 90%
    04:00 +25°C° 0,4 mm 0 m/s 749 mmHg 90%
    05:00 +26°C° 0,2 mm 0 m/s 750 mmHg 89%
    06:00 +26°C° 0,2 mm 0 m/s 750 mmHg 88%
    07:00 +26°C° 0,2 mm 0 m/s 751 mmHg 87%
    08:00 +28°C° 0,1 mm 0 m/s 751 mmHg 82%
    09:00 +29°C° 0,1 mm 0 m/s 751 mmHg 77%
    10:00 +32°C° 0,1 mm 1 m/s 751 mmHg 72%
    11:00 +33°C° 0 mm 1 m/s 751 mmHg 69%
    12:00 +34°C° 0 mm 1 m/s 750 mmHg 65%
    13:00 +35°C° 0 mm 1 m/s 749 mmHg 62%
    14:00 +36°C° 0 mm 2 m/s 749 mmHg 64%
    15:00 +35°C° 0 mm 2 m/s 748 mmHg 65%
    16:00 +35°C° 0 mm 2 m/s 748 mmHg 67%
    17:00 +34°C° 0 mm 2 m/s 748 mmHg 72%
    18:00 +32°C° 0 mm 2 m/s 749 mmHg 77%
    19:00 +31°C° 0 mm 2 m/s 749 mmHg 82%
    20:00 +30°C° 0,2 mm 2 m/s 750 mmHg 84%
    21:00 +30°C° 0,2 mm 2 m/s 751 mmHg 86%
    22:00 +29°C° 0,2 mm 2 m/s 751 mmHg 88%
    23:00 +29°C° 0,2 mm 2 m/s 751 mmHg 89%

    20 August, Luni

    Timp Temperatura Precipitaţii Vânt Presiune Umiditate
    00:00 +29°C° 0,2 mm 1 m/s 751 mmHg 89%
    01:00 +28°C° 0,2 mm 1 m/s 750 mmHg 90%
    02:00 +28°C° 0 mm 1 m/s 750 mmHg 90%
    03:00 +28°C° 0 mm 1 m/s 750 mmHg 91%
    04:00 +28°C° 0 mm 1 m/s 750 mmHg 91%
    05:00 +29°C° 0 mm 1 m/s 750 mmHg 90%
    06:00 +29°C° 0 mm 1 m/s 751 mmHg 89%
    07:00 +29°C° 0 mm 1 m/s 751 mmHg 87%
    08:00 +31°C° 0 mm 1 m/s 751 mmHg 81%
    09:00 +33°C° 0 mm 1 m/s 751 mmHg 75%
    10:00 +34°C° 0 mm 1 m/s 751 mmHg 69%
    11:00 +35°C° 0 mm 1 m/s 751 mmHg 64%
    12:00 +36°C° 0 mm 1 m/s 750 mmHg 60%
    13:00 +37°C° 0 mm 1 m/s 749 mmHg 55%
    14:00 +39°C° 0 mm 1 m/s 749 mmHg 55%
    15:00 +39°C° 0 mm 1 m/s 748 mmHg 55%
    16:00 +39°C° 0 mm 1 m/s 747 mmHg 55%
    17:00 +36°C° 0 mm 1 m/s 748 mmHg 61%
    18:00 +36°C° 0 mm 2 m/s 748 mmHg 67%
    19:00 +34°C° 0 mm 2 m/s 748 mmHg 73%
    20:00 +32°C° 0,6 mm 2 m/s 749 mmHg 76%
    21:00 +32°C° 0,6 mm 2 m/s 749 mmHg 78%
    22:00 +31°C° 0,6 mm 2 m/s 749 mmHg 81%
    23:00 +31°C° 0 mm 2 m/s 749 mmHg 82%
    Arată mai mult